Woolwich, ME

9:53 AM EST on January 21, 2017 (GMT -0500)
Wiscasset

Weather History for KIWI - July, 2014

Change the Weather History Date:

Sunday, July 27, 2014

  Actual Average Record
Temperature  
Mean Temperature 64 °F -  
Max Temperature 75 °F 75 °F 89 °F (2005)
Min Temperature 55 °F 54 °F 45 °F (2001)
Degree Days  
Heating Degree Days 1    
Growing Degree Days 14 (Base 50)    
Moisture  
Dew Point 63 °F    
Average Humidity 90    
Maximum Humidity 97    
Minimum Humidity 76    
Precipitation  
Precipitation 0.51 in - - ()
Sea Level Pressure  
Sea Level Pressure 29.78 in    
Wind  
Wind Speed 3 mph (South)    
Max Wind Speed 9 mph    
Max Gust Speed 18 mph    
Visibility 7 miles    
Events Rain , Thunderstorm    
Averages and records for this station are not official NWS values.
T = Trace of Precipitation, MM = Missing Value Source: NWS Daily Summary

Daily Weather History Graph

Daily Weather History Graph

Search for Another Location

Airport or City:

Trip Planner

Search our weather history database for the weather conditions in past years. The results will help you decide how hot, cold, wet, or windy it might be!

Date:

Astronomy

Jul. 27, 2014 Rise Set
Actual Time 5:21 AM EDT 8:08 PM EDT
Civil Twilight 4:48 AM EDT 8:41 PM EDT
Nautical Twilight 4:05 AM EDT 9:23 PM EDT
Astronomical Twilight 3:16 AM EDT 10:12 PM EDT
Moon 6:09 AM EDT (7/27) 8:11 PM EDT (7/27)
Length of Visible Light 15h 53m
Length of Day
14h 46m
New Moon, 0% of the Moon is Illuminated
Jul 27
New Moon
Aug 3
First Quarter
Aug 10
Full
Aug 17
Last Quarter
Aug 25
New

Hourly Weather History & Observations

Time (EDT) Temp. Dew Point Humidity Pressure Visibility Wind Dir Wind Speed Gust Speed Precip Events Conditions
12:53 AM 60.1 °F 57.9 °F 93% 29.87 in 7.0 mi Calm Calm - N/A   Clear
1:53 AM 59.0 °F 57.0 °F 93% 29.86 in 7.0 mi Calm Calm - N/A   Clear
2:53 AM 57.9 °F 55.9 °F 93% 29.84 in 6.0 mi Calm Calm - N/A   Clear
3:53 AM 57.0 °F 55.0 °F 93% 29.84 in 7.0 mi Calm Calm - N/A   Clear
4:53 AM 55.9 °F 54.0 °F 93% 29.85 in 6.0 mi Calm Calm - N/A   Clear
5:53 AM 55.9 °F 54.0 °F 93% 29.85 in 10.0 mi Calm Calm - N/A   Scattered Clouds
6:03 AM 55.9 °F 55.0 °F 97% 29.84 in 5.0 mi Calm Calm - N/A   Mostly Cloudy
6:20 AM 57.0 °F 55.9 °F 96% 29.84 in 5.0 mi Calm Calm - N/A   Mostly Cloudy
6:31 AM 57.9 °F 55.9 °F 93% 29.84 in 5.0 mi Calm Calm - N/A   Scattered Clouds
6:53 AM 61.0 °F 57.9 °F 90% 29.84 in 10.0 mi Calm Calm - N/A   Clear
7:53 AM 68.0 °F 63.0 °F 84% 29.82 in 10.0 mi SSE 4.6 mph - N/A   Clear
8:53 AM 71.1 °F 64.9 °F 81% 29.83 in 10.0 mi SSW 8.1 mph 17.3 mph N/A   Partly Cloudy
9:53 AM 72.0 °F 64.9 °F 78% 29.82 in 10.0 mi SSW 9.2 mph - N/A   Mostly Cloudy
10:37 AM 73.0 °F 66.0 °F 79% 29.80 in 10.0 mi South 8.1 mph - N/A   Mostly Cloudy
10:53 AM 73.9 °F 66.0 °F 76% 29.80 in 10.0 mi South 9.2 mph - N/A   Scattered Clouds
11:16 AM 73.0 °F 64.9 °F 76% 29.80 in 10.0 mi South 8.1 mph - N/A   Mostly Cloudy
11:34 AM 72.0 °F 64.9 °F 78% 29.79 in 10.0 mi Variable 5.8 mph - N/A   Overcast
11:53 AM 70.0 °F 64.0 °F 81% 29.80 in 10.0 mi SSW 9.2 mph 18.4 mph N/A   Overcast
1:36 PM 70.0 °F 64.9 °F 84% 29.78 in 10.0 mi Variable 5.8 mph - N/A   Overcast
1:53 PM 69.1 °F 66.0 °F 90% 29.78 in 5.0 mi Variable 5.8 mph - 0.02 in Rain Rain
2:15 PM 69.1 °F 66.0 °F 90% 29.77 in 2.0 mi South 9.2 mph - 0.06 in Rain Rain
2:22 PM 68.0 °F 66.0 °F 93% 29.77 in 1.8 mi South 4.6 mph - 0.10 in Rain Heavy Rain
2:29 PM 68.0 °F 66.0 °F 93% 29.77 in 1.5 mi SSW 8.1 mph - 0.14 in Rain , Thunderstorm Heavy Rain
2:37 PM 68.0 °F 66.0 °F 93% 29.77 in 2.0 mi Variable 5.8 mph - 0.18 in Rain , Thunderstorm Rain
2:50 PM 68.0 °F 64.4 °F 88% 29.77 in 2.5 mi South 6.9 mph - 0.23 in Rain Rain
2:53 PM 68.0 °F 66.0 °F 93% 29.77 in 3.0 mi SSW 4.6 mph - 0.23 in Rain Light Rain
3:33 PM 68.0 °F 66.0 °F 93% 29.77 in 2.5 mi SSW 5.8 mph - 0.06 in Rain Rain
3:53 PM 68.0 °F 66.0 °F 93% 29.76 in 4.0 mi South 6.9 mph - 0.10 in Rain Light Rain
4:53 PM 68.0 °F 64.9 °F 90% 29.75 in 4.0 mi Variable 6.9 mph - 0.04 in Rain Rain
4:58 PM 68.0 °F 64.9 °F 90% 29.75 in 1.8 mi South 8.1 mph - 0.03 in Rain Heavy Rain
5:04 PM 66.9 °F 64.9 °F 93% 29.74 in 2.0 mi Variable 5.8 mph - 0.04 in Rain Light Rain
5:07 PM 68.0 °F 66.0 °F 93% 29.74 in 3.0 mi South 6.9 mph - 0.04 in Rain Light Rain
5:42 PM 66.9 °F 64.0 °F 90% 29.74 in 10.0 mi South 5.8 mph - 0.04 in   Overcast
5:53 PM 66.9 °F 64.0 °F 90% 29.74 in 10.0 mi Variable 4.6 mph - 0.04 in   Overcast
6:21 PM 66.9 °F 64.0 °F 90% 29.73 in 10.0 mi South 4.6 mph - 0.00 in   Overcast
6:39 PM 66.9 °F 64.0 °F 90% 29.73 in 6.0 mi Variable 4.6 mph - 0.01 in Rain Light Rain
6:53 PM 66.0 °F 64.0 °F 93% 29.73 in 9.0 mi Variable 5.8 mph - 0.01 in   Overcast
7:00 PM 66.0 °F 63.0 °F 90% 29.73 in 9.0 mi South 6.9 mph - N/A   Overcast
7:53 PM 64.9 °F 62.1 °F 90% 29.72 in 10.0 mi South 3.5 mph - 0.01 in   Overcast
8:00 PM 64.9 °F 62.1 °F 90% 29.72 in 1.8 mi Variable 4.6 mph - 0.05 in Rain Rain
8:07 PM 64.9 °F 62.1 °F 90% 29.72 in 4.0 mi Variable 4.6 mph - 0.06 in Rain Light Rain
8:53 PM 64.9 °F 62.1 °F 90% 29.73 in 10.0 mi Calm Calm - 0.06 in   Overcast
9:21 PM 64.9 °F 63.0 °F 93% 29.73 in 6.0 mi Calm Calm - N/A   Overcast
9:53 PM 66.0 °F 64.0 °F 93% 29.72 in 10.0 mi Calm Calm - N/A   Overcast
10:53 PM 66.9 °F 64.9 °F 93% 29.70 in 8.0 mi Calm Calm - N/A   Overcast
11:42 PM 66.9 °F 64.9 °F 93% 29.70 in 6.0 mi Calm Calm - N/A   Overcast
11:53 PM 66.9 °F 64.9 °F 93% 29.70 in 5.0 mi Calm Calm - N/A   Overcast